Time,TemperatureF,DewpointF,PressureIn,WindDirection,WindDirectionDegrees,WindSpeedMPH,WindSpeedGustMPH,Humidity,HourlyPrecipIn,Conditions,Clouds,dailyrainin,SolarRadiationWatts/m^2,SoftwareType,DateUTC
2013-01-12 00:01:00,44.1,43.5,29.69,SSE,164,1.0,6.0,98,0.00,,,0.00,0.0,meteohub,2013-01-12 05:01:00,
2013-01-12 00:03:00,44.1,43.5,29.69,SSE,163,2.0,6.0,98,0.00,,,0.00,0.0,meteohub,2013-01-12 05:03:00,
2013-01-12 00:08:00,43.9,43.3,29.68,South,170,1.0,5.0,98,0.00,,,0.00,0.0,meteohub,2013-01-12 05:08:00,
2013-01-12 00:13:00,43.9,43.3,29.68,SSE,168,3.0,4.0,98,0.00,,,0.00,0.0,meteohub,2013-01-12 05:13:00,
2013-01-12 00:18:00,43.9,43.2,29.68,SSE,157,1.0,4.0,97,0.00,,,0.00,0.0,meteohub,2013-01-12 05:18:00,
2013-01-12 00:23:00,43.5,42.8,29.68,SSE,157,1.0,4.0,97,0.00,,,0.00,0.0,meteohub,2013-01-12 05:23:00,
2013-01-12 00:29:00,43.3,42.6,29.68,SSE,157,1.0,4.0,97,0.00,,,0.00,0.0,meteohub,2013-01-12 05:29:00,
2013-01-12 00:34:00,43.2,42.4,29.67,SSE,157,1.0,3.0,97,0.00,,,0.00,0.0,meteohub,2013-01-12 05:34:00,
2013-01-12 00:39:00,43.0,42.3,29.67,SSE,157,0.0,3.0,97,0.00,,,0.00,0.0,meteohub,2013-01-12 05:39:00,
2013-01-12 00:44:00,43.0,42.3,29.66,SSE,156,0.0,3.0,97,0.00,,,0.00,0.0,meteohub,2013-01-12 05:44:00,
2013-01-12 00:49:00,42.8,42.3,29.66,SE,145,1.0,3.0,98,0.00,,,0.00,0.0,meteohub,2013-01-12 05:49:00,
2013-01-12 00:54:00,42.6,42.1,29.65,SSE,160,1.0,3.0,98,0.00,,,0.00,0.0,meteohub,2013-01-12 05:54:00,
2013-01-12 00:59:00,42.6,42.1,29.65,SSE,167,1.0,4.0,98,0.00,,,0.00,0.0,meteohub,2013-01-12 05:59:00,
2013-01-12 01:04:00,42.8,42.3,29.66,South,182,0.0,4.0,98,0.00,,,0.00,0.0,meteohub,2013-01-12 06:04:00,
2013-01-12 01:09:00,43.0,42.4,29.66,SSE,158,2.0,5.0,98,0.00,,,0.00,0.0,meteohub,2013-01-12 06:09:00,
2013-01-12 01:14:00,43.3,42.8,29.66,South,173,4.0,5.0,98,0.00,,,0.00,0.0,meteohub,2013-01-12 06:14:00,
2013-01-12 01:19:00,43.5,43.0,29.67,SE,140,5.0,6.0,98,0.00,,,0.00,0.0,meteohub,2013-01-12 06:19:00,
2013-01-12 01:24:00,43.7,43.2,29.65,SE,144,4.0,6.0,98,0.00,,,0.00,0.0,meteohub,2013-01-12 06:24:00,
2013-01-12 01:29:00,43.9,43.3,29.65,SSE,158,5.0,6.0,98,0.00,,,0.00,0.0,meteohub,2013-01-12 06:29:00,
2013-01-12 01:34:00,43.9,43.3,29.65,South,184,3.0,5.0,98,0.00,,,0.00,0.0,meteohub,2013-01-12 06:34:00,
2013-01-12 01:39:00,44.1,43.5,29.65,SSE,148,2.0,5.0,98,0.00,,,0.00,0.0,meteohub,2013-01-12 06:39:00,
2013-01-12 01:44:00,44.2,43.7,29.64,SSE,148,3.0,6.0,98,0.00,,,0.00,0.0,meteohub,2013-01-12 06:44:00,
2013-01-12 01:49:00,44.2,43.7,29.65,South,171,4.0,7.0,98,0.00,,,0.00,0.0,meteohub,2013-01-12 06:49:00,
2013-01-12 01:54:00,44.2,43.7,29.65,South,169,3.0,7.0,98,0.00,,,0.00,0.0,meteohub,2013-01-12 06:54:00,
2013-01-12 01:59:00,44.4,43.9,29.65,SSE,160,2.0,7.0,98,0.00,,,0.00,0.0,meteohub,2013-01-12 06:59:00,
2013-01-12 02:04:00,44.4,43.7,29.64,SSE,161,2.0,7.0,97,0.00,,,0.00,0.0,meteohub,2013-01-12 07:04:00,
2013-01-12 02:09:00,44.2,43.5,29.64,SSE,163,2.0,7.0,97,0.00,,,0.00,0.0,meteohub,2013-01-12 07:09:00,
2013-01-12 02:14:00,43.9,43.2,29.65,SSE,168,4.0,6.0,97,0.00,,,0.00,0.0,meteohub,2013-01-12 07:14:00,
2013-01-12 02:19:00,43.7,43.0,29.65,SE,145,1.0,6.0,97,0.00,,,0.00,0.0,meteohub,2013-01-12 07:19:00,
2013-01-12 02:24:00,43.5,42.8,29.65,South,169,2.0,6.0,97,0.00,,,0.00,0.0,meteohub,2013-01-12 07:24:00,
2013-01-12 02:29:00,43.3,42.6,29.65,SE,144,2.0,6.0,97,0.00,,,0.00,0.0,meteohub,2013-01-12 07:29:00,
2013-01-12 02:34:00,43.2,42.4,29.65,South,171,2.0,4.0,97,0.00,,,0.00,0.0,meteohub,2013-01-12 07:34:00,
2013-01-12 02:39:00,43.0,42.3,29.65,SSE,156,2.0,5.0,97,0.00,,,0.00,0.0,meteohub,2013-01-12 07:39:00,
2013-01-12 02:44:00,43.0,42.3,29.65,SSE,163,2.0,5.0,97,0.00,,,0.00,0.0,meteohub,2013-01-12 07:44:00,
2013-01-12 02:49:00,42.8,42.3,29.65,SE,135,3.0,5.0,98,0.00,,,0.00,0.0,meteohub,2013-01-12 07:49:00,
2013-01-12 02:54:00,42.8,42.3,29.65,SSE,162,2.0,5.0,98,0.00,,,0.00,0.0,meteohub,2013-01-12 07:54:00,
2013-01-12 02:59:00,42.6,42.1,29.65,SE,146,3.0,5.0,98,0.00,,,0.00,0.0,meteohub,2013-01-12 07:59:00,
2013-01-12 03:04:00,42.6,42.1,29.63,SSE,158,1.0,5.0,98,0.00,,,0.00,0.0,meteohub,2013-01-12 08:04:00,
2013-01-12 03:09:00,42.4,41.9,29.63,SSE,153,3.0,5.0,98,0.00,,,0.00,0.0,meteohub,2013-01-12 08:09:00,
2013-01-12 03:14:00,42.4,41.9,29.64,SSE,163,1.0,5.0,98,0.00,,,0.00,0.0,meteohub,2013-01-12 08:14:00,
2013-01-12 03:19:00,42.6,42.1,29.63,SSE,160,0.0,5.0,98,0.00,,,0.00,0.0,meteohub,2013-01-12 08:19:00,
2013-01-12 03:24:00,42.6,42.1,29.64,South,186,2.0,5.0,98,0.00,,,0.00,0.0,meteohub,2013-01-12 08:24:00,
2013-01-12 03:29:00,43.0,42.4,29.64,SSE,159,0.0,5.0,98,0.00,,,0.00,0.0,meteohub,2013-01-12 08:29:00,
2013-01-12 03:34:00,43.0,42.4,29.64,SSE,153,1.0,6.0,98,0.00,,,0.00,0.0,meteohub,2013-01-12 08:34:00,
2013-01-12 03:39:00,43.0,42.4,29.63,South,175,1.0,6.0,98,0.00,,,0.00,0.0,meteohub,2013-01-12 08:39:00,
2013-01-12 03:44:00,43.0,42.4,29.63,SSE,158,2.0,5.0,98,0.00,,,0.00,0.0,meteohub,2013-01-12 08:44:00,
2013-01-12 03:49:00,43.0,42.8,29.63,South,169,1.0,5.0,99,0.00,,,0.00,0.0,meteohub,2013-01-12 08:49:00,
2013-01-12 03:54:00,43.0,42.4,29.62,SSE,157,2.0,4.0,98,0.00,,,0.00,0.0,meteohub,2013-01-12 08:54:00,
2013-01-12 03:59:00,43.0,42.4,29.62,SSE,161,3.0,4.0,98,0.00,,,0.00,0.0,meteohub,2013-01-12 08:59:00,
2013-01-12 04:04:00,43.3,43.2,29.62,South,186,2.0,5.0,99,0.00,,,0.00,0.0,meteohub,2013-01-12 09:04:00,
2013-01-12 04:09:00,44.2,44.1,29.61,South,190,1.0,5.0,99,0.00,,,0.00,0.0,meteohub,2013-01-12 09:09:00,
2013-01-12 04:14:00,44.8,44.6,29.61,SSE,160,3.0,6.0,99,0.00,,,0.00,0.0,meteohub,2013-01-12 09:14:00,
2013-01-12 04:20:00,45.1,45.0,29.61,SW,229,4.0,6.0,99,0.00,,,0.00,0.0,meteohub,2013-01-12 09:20:00,
2013-01-12 04:25:00,45.7,45.5,29.61,South,173,3.0,9.0,99,0.00,,,0.00,0.0,meteohub,2013-01-12 09:25:00,
2013-01-12 04:30:00,45.9,45.3,29.60,South,171,2.0,9.0,98,0.00,,,0.00,0.0,meteohub,2013-01-12 09:30:00,
2013-01-12 04:35:00,46.0,45.3,29.61,SW,215,3.0,9.0,97,0.00,,,0.00,0.0,meteohub,2013-01-12 09:35:00,
2013-01-12 04:40:00,46.0,45.3,29.60,SSW,201,4.0,8.0,97,0.00,,,0.00,0.0,meteohub,2013-01-12 09:40:00,
2013-01-12 04:46:00,46.0,45.0,29.60,SSW,203,4.0,8.0,96,0.00,,,0.00,0.0,meteohub,2013-01-12 09:46:00,
2013-01-12 04:51:00,46.0,45.0,29.61,South,186,4.0,7.0,96,0.00,,,0.00,0.0,meteohub,2013-01-12 09:51:00,
2013-01-12 04:56:00,46.0,45.0,29.61,South,179,6.0,7.0,96,0.00,,,0.00,0.0,meteohub,2013-01-12 09:56:00,
2013-01-12 05:01:00,46.0,45.0,29.60,South,175,6.0,8.0,96,0.00,,,0.00,0.0,meteohub,2013-01-12 10:01:00,
2013-01-12 05:06:00,46.0,45.0,29.60,South,186,3.0,8.0,96,0.00,,,0.00,0.0,meteohub,2013-01-12 10:06:00,
2013-01-12 05:11:00,45.9,44.8,29.59,South,172,1.0,8.0,96,0.00,,,0.00,0.0,meteohub,2013-01-12 10:11:00,
2013-01-12 05:16:00,45.7,44.6,29.59,SSE,167,4.0,8.0,96,0.00,,,0.00,0.0,meteohub,2013-01-12 10:16:00,
2013-01-12 05:21:00,45.5,44.4,29.59,South,178,2.0,7.0,96,0.00,,,0.00,0.0,meteohub,2013-01-12 10:21:00,
2013-01-12 05:26:00,45.5,44.4,29.59,SSE,167,4.0,6.0,96,0.00,,,0.00,0.0,meteohub,2013-01-12 10:26:00,
2013-01-12 05:31:00,45.3,44.2,29.60,South,170,4.0,6.0,96,0.00,,,0.00,0.0,meteohub,2013-01-12 10:31:00,
2013-01-12 05:36:00,45.3,44.2,29.59,SSW,196,5.0,6.0,96,0.00,,,0.00,0.0,meteohub,2013-01-12 10:36:00,
2013-01-12 05:41:00,45.3,44.2,29.60,SSE,168,4.0,6.0,96,0.00,,,0.00,0.0,meteohub,2013-01-12 10:41:00,
2013-01-12 05:46:00,45.3,44.2,29.60,South,182,4.0,6.0,96,0.00,,,0.00,0.0,meteohub,2013-01-12 10:46:00,
2013-01-12 05:51:00,45.3,44.2,29.59,SE,137,3.0,8.0,96,0.00,,,0.00,0.0,meteohub,2013-01-12 10:51:00,
2013-01-12 05:56:00,45.3,44.2,29.58,South,175,4.0,8.0,96,0.00,,,0.00,0.0,meteohub,2013-01-12 10:56:00,
2013-01-12 06:01:00,45.5,44.4,29.58,South,182,4.0,8.0,96,0.00,,,0.00,0.0,meteohub,2013-01-12 11:01:00,
2013-01-12 06:06:00,45.7,44.6,29.59,South,186,4.0,8.0,96,0.00,,,0.00,0.0,meteohub,2013-01-12 11:06:00,
2013-01-12 06:11:00,45.7,44.6,29.58,South,175,2.0,8.0,96,0.00,,,0.00,0.0,meteohub,2013-01-12 11:11:00,
2013-01-12 06:16:00,45.7,44.6,29.59,South,184,2.0,8.0,96,0.00,,,0.00,0.0,meteohub,2013-01-12 11:16:00,
2013-01-12 06:21:00,45.7,44.6,29.59,SSW,192,3.0,7.0,96,0.00,,,0.00,0.0,meteohub,2013-01-12 11:21:00,
2013-01-12 06:26:00,45.7,44.6,29.59,SSE,150,2.0,7.0,96,0.00,,,0.00,0.0,meteohub,2013-01-12 11:26:00,
2013-01-12 06:31:00,45.9,44.8,29.59,South,177,3.0,7.0,96,0.00,,,0.00,0.0,meteohub,2013-01-12 11:31:00,
2013-01-12 06:36:00,46.0,45.0,29.59,South,176,5.0,8.0,96,0.00,,,0.00,0.0,meteohub,2013-01-12 11:36:00,
2013-01-12 06:41:00,46.0,44.6,29.59,SSW,192,2.0,9.0,95,0.00,,,0.00,0.0,meteohub,2013-01-12 11:41:00,
2013-01-12 06:46:00,46.0,44.6,29.58,South,178,2.0,12.0,95,0.00,,,0.00,0.0,meteohub,2013-01-12 11:46:00,
2013-01-12 06:51:00,46.0,44.6,29.59,South,178,4.0,12.0,95,0.00,,,0.00,0.0,meteohub,2013-01-12 11:51:00,
2013-01-12 06:57:00,45.9,44.4,29.59,SSW,195,3.0,12.0,95,0.00,,,0.00,0.0,meteohub,2013-01-12 11:57:00,
2013-01-12 07:01:00,46.0,44.6,29.59,South,189,4.0,7.0,95,0.00,,,0.00,0.0,meteohub,2013-01-12 12:01:00,
2013-01-12 07:06:00,46.0,44.6,29.59,South,185,4.0,7.0,95,0.00,,,0.00,0.0,meteohub,2013-01-12 12:06:00,
2013-01-12 07:12:00,46.2,44.8,29.59,SE,132,5.0,8.0,95,0.00,,,0.00,0.0,meteohub,2013-01-12 12:12:00,
2013-01-12 07:17:00,46.2,44.8,29.58,South,178,5.0,9.0,95,0.00,,,0.00,0.0,meteohub,2013-01-12 12:17:00,
2013-01-12 07:22:00,46.2,44.8,29.58,SSW,209,5.0,9.0,95,0.00,,,0.00,0.0,meteohub,2013-01-12 12:22:00,
2013-01-12 07:27:00,46.2,44.8,29.58,South,178,4.0,9.0,95,0.00,,,0.00,0.0,meteohub,2013-01-12 12:27:00,
2013-01-12 07:32:00,46.2,44.6,29.59,South,188,4.0,9.0,94,0.00,,,0.00,0.0,meteohub,2013-01-12 12:32:00,
2013-01-12 07:37:00,46.0,44.6,29.58,SSW,206,4.0,9.0,95,0.00,,,0.00,0.0,meteohub,2013-01-12 12:37:00,
2013-01-12 07:42:00,46.2,44.8,29.59,SSW,195,3.0,9.0,95,0.00,,,0.00,0.0,meteohub,2013-01-12 12:42:00,
2013-01-12 07:47:00,46.2,44.8,29.59,SSW,202,3.0,9.0,95,0.00,,,0.00,0.0,meteohub,2013-01-12 12:47:00,
2013-01-12 07:52:00,46.2,44.8,29.59,SSW,194,5.0,9.0,95,0.00,,,0.00,0.0,meteohub,2013-01-12 12:52:00,
2013-01-12 07:57:00,46.4,45.0,29.59,South,186,5.0,9.0,95,0.00,,,0.00,0.0,meteohub,2013-01-12 12:57:00,
2013-01-12 08:02:00,46.4,44.8,29.59,South,191,7.0,11.0,94,0.00,,,0.00,0.0,meteohub,2013-01-12 13:02:00,
2013-01-12 08:07:00,46.2,44.6,29.59,SSW,197,3.0,11.0,94,0.00,,,0.00,0.0,meteohub,2013-01-12 13:07:00,
2013-01-12 08:12:00,46.2,44.6,29.59,South,169,3.0,11.0,94,0.00,,,0.00,0.0,meteohub,2013-01-12 13:12:00,
2013-01-12 08:17:00,46.4,44.8,29.60,SW,219,6.0,11.0,94,0.00,,,0.00,0.0,meteohub,2013-01-12 13:17:00,
2013-01-12 08:22:00,46.6,45.0,29.60,South,169,6.0,11.0,94,0.00,,,0.00,0.0,meteohub,2013-01-12 13:22:00,
2013-01-12 08:27:00,46.4,44.8,29.60,SSW,192,4.0,11.0,94,0.00,,,0.00,5.0,meteohub,2013-01-12 13:27:00,
2013-01-12 08:32:00,46.2,44.6,29.60,SSW,201,3.0,11.0,94,0.00,,,0.00,7.0,meteohub,2013-01-12 13:32:00,
2013-01-12 08:37:00,46.0,44.4,29.60,South,189,3.0,10.0,94,0.00,,,0.00,9.0,meteohub,2013-01-12 13:37:00,
2013-01-12 08:42:00,46.0,44.4,29.59,South,184,5.0,10.0,94,0.00,,,0.00,9.0,meteohub,2013-01-12 13:42:00,
2013-01-12 08:47:00,46.0,44.4,29.60,SSW,205,4.0,10.0,94,0.00,,,0.00,12.0,meteohub,2013-01-12 13:47:00,
2013-01-12 08:52:00,46.0,44.4,29.60,SSW,197,4.0,9.0,94,0.00,,,0.00,21.0,meteohub,2013-01-12 13:52:00,
2013-01-12 08:57:00,46.2,44.8,29.60,SSW,193,4.0,9.0,95,0.00,,,0.00,19.0,meteohub,2013-01-12 13:57:00,
2013-01-12 09:02:00,46.2,44.6,29.60,SSW,203,4.0,9.0,94,0.00,,,0.00,28.0,meteohub,2013-01-12 14:02:00,
2013-01-12 09:07:00,46.2,44.6,29.60,South,181,5.0,8.0,94,0.00,,,0.00,47.0,meteohub,2013-01-12 14:07:00,
2013-01-12 09:12:00,46.2,44.6,29.60,SSW,194,3.0,8.0,94,0.00,,,0.00,76.0,meteohub,2013-01-12 14:12:00,
2013-01-12 09:17:00,46.8,45.1,29.60,SSW,204,4.0,8.0,94,0.00,,,0.00,76.0,meteohub,2013-01-12 14:17:00,
2013-01-12 09:22:00,46.9,45.3,29.60,SSW,200,7.0,8.0,94,0.00,,,0.00,90.0,meteohub,2013-01-12 14:22:00,
2013-01-12 09:27:00,47.1,45.1,29.60,South,186,4.0,10.0,93,0.00,,,0.00,104.0,meteohub,2013-01-12 14:27:00,
2013-01-12 09:32:00,47.3,45.3,29.60,South,187,5.0,10.0,93,0.00,,,0.00,100.0,meteohub,2013-01-12 14:32:00,
2013-01-12 09:37:00,47.5,45.5,29.60,SW,221,5.0,11.0,93,0.00,,,0.00,104.0,meteohub,2013-01-12 14:37:00,
2013-01-12 09:42:00,47.7,45.5,29.60,SSW,200,9.0,11.0,92,0.00,,,0.00,95.0,meteohub,2013-01-12 14:42:00,
2013-01-12 09:47:00,47.8,45.7,29.60,South,188,3.0,11.0,92,0.00,,,0.00,62.0,meteohub,2013-01-12 14:47:00,
2013-01-12 09:52:00,48.0,45.5,29.61,South,189,4.0,10.0,91,0.00,,,0.00,165.0,meteohub,2013-01-12 14:52:00,
2013-01-12 09:57:00,48.4,45.5,29.60,South,183,5.0,11.0,90,0.00,,,0.00,109.0,meteohub,2013-01-12 14:57:00,
2013-01-12 10:02:00,48.6,45.5,29.60,WSW,246,3.0,13.0,89,0.00,,,0.00,100.0,meteohub,2013-01-12 15:02:00,
2013-01-12 10:07:00,48.6,45.1,29.60,WSW,237,7.0,14.0,88,0.00,,,0.00,162.0,meteohub,2013-01-12 15:07:00,
2013-01-12 10:12:00,48.6,45.1,29.60,WSW,242,5.0,14.0,88,0.00,,,0.00,114.0,meteohub,2013-01-12 15:12:00,
2013-01-12 10:17:00,48.7,45.3,29.60,SSW,208,5.0,12.0,88,0.00,,,0.00,211.0,meteohub,2013-01-12 15:17:00,
2013-01-12 10:22:00,49.1,45.3,29.60,WSW,255,3.0,12.0,87,0.00,,,0.00,114.0,meteohub,2013-01-12 15:22:00,
2013-01-12 10:27:00,49.1,45.3,29.61,SW,219,4.0,13.0,87,0.00,,,0.00,113.0,meteohub,2013-01-12 15:27:00,
2013-01-12 10:33:00,49.1,45.1,29.61,WSW,250,3.0,14.0,86,0.00,,,0.00,176.0,meteohub,2013-01-12 15:33:00,
2013-01-12 10:38:00,49.6,45.3,29.61,SW,232,8.0,14.0,85,0.00,,,0.00,297.0,meteohub,2013-01-12 15:38:00,
2013-01-12 10:43:00,50.0,45.3,29.61,SSW,197,6.0,14.0,84,0.00,,,0.00,269.0,meteohub,2013-01-12 15:43:00,
2013-01-12 10:48:00,50.0,45.3,29.61,SW,223,8.0,19.0,84,0.00,,,0.00,158.0,meteohub,2013-01-12 15:48:00,
2013-01-12 10:53:00,49.8,45.1,29.61,WSW,249,12.0,19.0,84,0.00,,,0.00,362.0,meteohub,2013-01-12 15:53:00,
2013-01-12 10:58:00,50.2,45.1,29.61,SW,224,7.0,20.0,83,0.00,,,0.00,127.0,meteohub,2013-01-12 15:58:00,
2013-01-12 11:03:00,50.2,45.1,29.61,West,259,6.0,21.0,83,0.00,,,0.00,128.0,meteohub,2013-01-12 16:03:00,
2013-01-12 11:08:00,49.8,44.8,29.62,South,188,9.0,21.0,83,0.00,,,0.00,171.0,meteohub,2013-01-12 16:08:00,
2013-01-12 11:13:00,50.2,45.1,29.61,SSW,202,5.0,21.0,83,0.00,,,0.00,127.0,meteohub,2013-01-12 16:13:00,
2013-01-12 11:18:00,50.2,45.0,29.61,South,179,6.0,14.0,82,0.00,,,0.00,142.0,meteohub,2013-01-12 16:18:00,
2013-01-12 11:23:00,50.5,45.3,29.61,West,277,6.0,16.0,82,0.00,,,0.00,128.0,meteohub,2013-01-12 16:23:00,
2013-01-12 11:28:00,50.5,45.0,29.61,SW,233,5.0,16.0,81,0.00,,,0.00,148.0,meteohub,2013-01-12 16:28:00,
2013-01-12 11:33:00,50.7,44.8,29.61,WSW,238,5.0,16.0,80,0.00,,,0.00,163.0,meteohub,2013-01-12 16:33:00,
2013-01-12 11:38:00,50.9,45.0,29.61,WSW,258,7.0,16.0,80,0.00,,,0.00,160.0,meteohub,2013-01-12 16:38:00,
2013-01-12 11:43:00,51.1,44.8,29.61,SW,235,5.0,15.0,79,0.00,,,0.00,139.0,meteohub,2013-01-12 16:43:00,
2013-01-12 11:48:00,51.3,43.9,29.61,West,261,3.0,16.0,76,0.00,,,0.00,135.0,meteohub,2013-01-12 16:48:00,
2013-01-12 11:53:00,51.8,44.1,29.60,South,173,8.0,23.0,75,0.00,,,0.00,209.0,meteohub,2013-01-12 16:53:00,
2013-01-12 11:58:00,52.0,43.5,29.61,SSW,212,5.0,23.0,73,0.00,,,0.00,385.0,meteohub,2013-01-12 16:58:00,
2013-01-12 12:03:00,52.3,43.2,29.61,SSW,212,9.0,20.0,71,0.00,,,0.00,394.0,meteohub,2013-01-12 17:03:00,
2013-01-12 12:08:00,52.3,43.2,29.61,WNW,283,6.0,20.0,71,0.00,,,0.00,388.0,meteohub,2013-01-12 17:08:00,
2013-01-12 12:13:00,52.7,42.8,29.60,SW,227,6.0,20.0,69,0.00,,,0.00,388.0,meteohub,2013-01-12 17:13:00,
2013-01-12 12:18:00,52.9,43.0,29.60,SW,231,7.0,19.0,69,0.00,,,0.00,390.0,meteohub,2013-01-12 17:18:00,
2013-01-12 12:23:00,52.7,42.4,29.60,WSW,237,2.0,19.0,68,0.00,,,0.00,394.0,meteohub,2013-01-12 17:23:00,
2013-01-12 12:28:00,52.7,42.4,29.60,SSW,192,3.0,18.0,68,0.00,,,0.00,411.0,meteohub,2013-01-12 17:28:00,
2013-01-12 12:33:00,52.9,42.3,29.60,SW,217,5.0,18.0,67,0.00,,,0.00,403.0,meteohub,2013-01-12 17:33:00,
2013-01-12 12:38:00,52.9,41.9,29.60,NNW,334,5.0,19.0,66,0.00,,,0.00,397.0,meteohub,2013-01-12 17:38:00,
2013-01-12 12:43:00,53.1,42.1,29.60,SSW,209,12.0,19.0,66,0.00,,,0.00,401.0,meteohub,2013-01-12 17:43:00,
2013-01-12 12:48:00,53.1,41.2,29.61,SSW,207,4.0,19.0,64,0.00,,,0.00,408.0,meteohub,2013-01-12 17:48:00,
2013-01-12 12:53:00,53.1,40.5,29.61,SW,226,7.0,19.0,62,0.00,,,0.00,411.0,meteohub,2013-01-12 17:53:00,
2013-01-12 12:58:00,53.1,39.9,29.61,SW,217,3.0,20.0,61,0.00,,,0.00,418.0,meteohub,2013-01-12 17:58:00,
2013-01-12 13:03:00,53.1,39.6,29.61,West,259,7.0,29.0,60,0.00,,,0.00,418.0,meteohub,2013-01-12 18:03:00,
2013-01-12 13:08:00,53.2,39.7,29.60,SSW,204,7.0,29.0,60,0.01,,,0.01,413.0,meteohub,2013-01-12 18:08:00,
2013-01-12 13:13:00,53.1,38.7,29.61,West,261,4.0,29.0,58,0.01,,,0.01,411.0,meteohub,2013-01-12 18:13:00,
2013-01-12 13:18:00,52.9,37.6,29.62,West,273,3.0,23.0,56,0.01,,,0.01,403.0,meteohub,2013-01-12 18:18:00,
2013-01-12 13:23:00,52.7,38.3,29.62,WSW,240,7.0,23.0,58,0.01,,,0.01,408.0,meteohub,2013-01-12 18:23:00,
2013-01-12 13:28:00,52.5,38.1,29.62,WSW,254,15.0,23.0,58,0.01,,,0.01,397.0,meteohub,2013-01-12 18:28:00,
2013-01-12 13:33:00,52.3,37.9,29.62,SW,223,7.0,24.0,58,0.01,,,0.01,394.0,meteohub,2013-01-12 18:33:00,
2013-01-12 13:38:00,52.2,38.3,29.64,West,267,3.0,24.0,59,0.01,,,0.01,390.0,meteohub,2013-01-12 18:38:00,
2013-01-12 13:43:00,52.2,38.7,29.65,WNW,288,5.0,23.0,60,0.01,,,0.01,383.0,meteohub,2013-01-12 18:43:00,
2013-01-12 13:48:00,51.8,38.8,29.65,SW,234,4.0,19.0,61,0.01,,,0.01,381.0,meteohub,2013-01-12 18:48:00,
2013-01-12 13:53:00,51.8,39.6,29.66,NW,312,2.0,17.0,63,0.01,,,0.01,383.0,meteohub,2013-01-12 18:53:00,
2013-01-12 13:58:00,51.4,38.5,29.66,WSW,242,13.0,14.0,61,0.01,,,0.01,371.0,meteohub,2013-01-12 18:58:00,
2013-01-12 14:03:00,50.5,38.5,29.67,WSW,253,17.0,17.0,63,0.01,,,0.01,364.0,meteohub,2013-01-12 19:03:00,
2013-01-12 14:08:00,50.0,37.0,29.67,WSW,250,5.0,14.0,61,0.00,,,0.01,360.0,meteohub,2013-01-12 19:08:00,
2013-01-12 14:13:00,50.2,36.0,29.67,SW,219,6.0,22.0,58,0.00,,,0.01,329.0,meteohub,2013-01-12 19:13:00,
2013-01-12 14:18:00,49.6,34.5,29.67,SW,231,5.0,22.0,56,0.00,,,0.01,320.0,meteohub,2013-01-12 19:18:00,
2013-01-12 14:23:00,49.5,34.9,29.68,WNW,300,5.0,22.0,57,0.00,,,0.01,262.0,meteohub,2013-01-12 19:23:00,
2013-01-12 14:28:00,48.9,34.3,29.68,West,259,3.0,21.0,57,0.00,,,0.01,272.0,meteohub,2013-01-12 19:28:00,
2013-01-12 14:33:00,48.6,34.0,29.69,West,261,8.0,22.0,57,0.00,,,0.01,327.0,meteohub,2013-01-12 19:33:00,
2013-01-12 14:38:00,48.6,34.0,29.70,WNW,287,6.0,22.0,57,0.00,,,0.01,313.0,meteohub,2013-01-12 19:38:00,
2013-01-12 14:44:00,47.8,33.8,29.70,SSW,197,3.0,22.0,58,0.00,,,0.01,267.0,meteohub,2013-01-12 19:44:00,
2013-01-12 14:49:00,47.3,34.5,29.71,SSW,211,7.0,20.0,61,0.00,,,0.01,121.0,meteohub,2013-01-12 19:49:00,
2013-01-12 14:54:00,46.6,34.7,29.71,WNW,285,4.0,20.0,63,0.00,,,0.01,142.0,meteohub,2013-01-12 19:54:00,
2013-01-12 14:59:00,46.0,34.5,29.72,West,269,9.0,18.0,64,0.00,,,0.01,146.0,meteohub,2013-01-12 19:59:00,
2013-01-12 15:04:00,45.9,34.3,29.72,WSW,240,5.0,18.0,64,0.00,,,0.01,134.0,meteohub,2013-01-12 20:04:00,
2013-01-12 15:09:00,45.3,34.3,29.72,WNW,293,9.0,16.0,65,0.00,,,0.01,149.0,meteohub,2013-01-12 20:09:00,
2013-01-12 15:14:00,45.0,34.0,29.73,WSW,256,5.0,17.0,65,0.00,,,0.01,137.0,meteohub,2013-01-12 20:14:00,
2013-01-12 15:19:00,44.8,34.9,29.73,NW,304,4.0,17.0,68,0.00,,,0.01,269.0,meteohub,2013-01-12 20:19:00,
2013-01-12 15:24:00,44.6,34.7,29.75,WNW,301,5.0,15.0,68,0.00,,,0.01,100.0,meteohub,2013-01-12 20:24:00,
2013-01-12 15:29:00,44.2,34.7,29.74,West,277,2.0,14.0,69,0.00,,,0.01,264.0,meteohub,2013-01-12 20:29:00,
2013-01-12 15:34:00,44.6,35.1,29.75,SSW,192,6.0,14.0,69,0.00,,,0.01,243.0,meteohub,2013-01-12 20:34:00,
2013-01-12 15:39:00,44.1,34.2,29.75,South,177,6.0,14.0,68,0.00,,,0.01,58.0,meteohub,2013-01-12 20:39:00,
2013-01-12 15:44:00,43.3,33.8,29.76,West,281,3.0,11.0,69,0.00,,,0.01,58.0,meteohub,2013-01-12 20:44:00,
2013-01-12 15:49:00,43.0,33.8,29.76,West,275,6.0,14.0,70,0.00,,,0.01,65.0,meteohub,2013-01-12 20:49:00,
2013-01-12 15:54:00,42.6,34.2,29.76,West,276,1.0,14.0,72,0.00,,,0.01,60.0,meteohub,2013-01-12 20:54:00,
2013-01-12 15:59:00,42.3,33.8,29.76,West,265,1.0,14.0,72,0.00,,,0.01,58.0,meteohub,2013-01-12 20:59:00,
2013-01-12 16:04:00,42.1,33.8,29.76,West,262,2.0,12.0,72,0.00,,,0.01,54.0,meteohub,2013-01-12 21:04:00,
2013-01-12 16:09:00,41.9,33.8,29.77,WSW,238,7.0,12.0,73,0.00,,,0.01,51.0,meteohub,2013-01-12 21:09:00,
2013-01-12 16:14:00,41.7,34.0,29.77,SSW,213,6.0,12.0,74,0.00,,,0.01,62.0,meteohub,2013-01-12 21:14:00,
2013-01-12 16:19:00,41.5,34.2,29.77,West,279,4.0,11.0,75,0.00,,,0.01,53.0,meteohub,2013-01-12 21:19:00,
2013-01-12 16:24:00,41.5,33.8,29.78,SSW,210,2.0,11.0,74,0.00,,,0.01,46.0,meteohub,2013-01-12 21:24:00,
2013-01-12 16:29:00,41.4,33.6,29.78,WSW,249,15.0,15.0,74,0.00,,,0.01,40.0,meteohub,2013-01-12 21:29:00,
2013-01-12 16:34:00,41.2,33.4,29.78,West,269,5.0,15.0,74,0.00,,,0.01,33.0,meteohub,2013-01-12 21:34:00,
2013-01-12 16:39:00,41.2,33.4,29.78,WNW,296,6.0,15.0,74,0.00,,,0.01,26.0,meteohub,2013-01-12 21:39:00,
2013-01-12 16:44:00,41.0,33.6,29.78,SW,226,9.0,15.0,75,0.00,,,0.01,21.0,meteohub,2013-01-12 21:44:00,
2013-01-12 16:49:00,40.8,33.3,29.78,WSW,243,9.0,14.0,74,0.00,,,0.01,18.0,meteohub,2013-01-12 21:49:00,
2013-01-12 16:54:00,40.6,33.3,29.78,WNW,290,4.0,12.0,75,0.00,,,0.01,11.0,meteohub,2013-01-12 21:54:00,
2013-01-12 16:59:00,40.5,33.1,29.78,West,270,2.0,14.0,75,0.00,,,0.01,5.0,meteohub,2013-01-12 21:59:00,
2013-01-12 17:04:00,40.3,33.3,29.79,WNW,298,3.0,14.0,76,0.00,,,0.01,5.0,meteohub,2013-01-12 22:04:00,
2013-01-12 17:09:00,40.3,33.3,29.80,SW,230,8.0,14.0,76,0.00,,,0.01,0.0,meteohub,2013-01-12 22:09:00,
2013-01-12 17:14:00,39.9,32.9,29.79,SW,236,8.0,10.0,76,0.00,,,0.01,0.0,meteohub,2013-01-12 22:14:00,
2013-01-12 17:19:00,39.9,32.9,29.79,WNW,294,4.0,10.0,76,0.00,,,0.01,0.0,meteohub,2013-01-12 22:19:00,
2013-01-12 17:25:00,39.7,32.7,29.79,WNW,301,4.0,9.0,76,0.00,,,0.01,0.0,meteohub,2013-01-12 22:25:00,
2013-01-12 17:30:00,39.7,32.7,29.79,West,260,4.0,18.0,76,0.00,,,0.01,0.0,meteohub,2013-01-12 22:30:00,
2013-01-12 17:35:00,39.6,32.5,29.80,WNW,285,3.0,18.0,76,0.00,,,0.01,0.0,meteohub,2013-01-12 22:35:00,
2013-01-12 17:40:00,39.4,32.7,29.81,WNW,295,2.0,10.0,77,0.00,,,0.01,0.0,meteohub,2013-01-12 22:40:00,
2013-01-12 17:45:00,39.4,32.7,29.81,SSW,208,9.0,15.0,77,0.00,,,0.01,0.0,meteohub,2013-01-12 22:45:00,
2013-01-12 17:50:00,39.2,32.5,29.80,WSW,257,5.0,15.0,77,0.00,,,0.01,0.0,meteohub,2013-01-12 22:50:00,
2013-01-12 17:55:00,39.2,32.5,29.80,SW,230,8.0,13.0,77,0.00,,,0.01,0.0,meteohub,2013-01-12 22:55:00,
2013-01-12 18:00:00,39.2,32.5,29.80,West,263,2.0,16.0,77,0.00,,,0.01,0.0,meteohub,2013-01-12 23:00:00,
2013-01-12 18:05:00,39.0,32.7,29.81,SSW,209,4.0,16.0,78,0.00,,,0.01,0.0,meteohub,2013-01-12 23:05:00,
2013-01-12 18:10:00,39.0,32.7,29.81,WSW,242,9.0,16.0,78,0.00,,,0.01,0.0,meteohub,2013-01-12 23:10:00,
2013-01-12 18:15:00,38.8,32.9,29.82,WSW,238,7.0,12.0,79,0.00,,,0.01,0.0,meteohub,2013-01-12 23:15:00,
2013-01-12 18:20:00,38.8,32.9,29.82,West,273,6.0,14.0,79,0.00,,,0.01,0.0,meteohub,2013-01-12 23:20:00,
2013-01-12 18:25:00,38.7,32.7,29.82,West,279,9.0,14.0,79,0.00,,,0.01,0.0,meteohub,2013-01-12 23:25:00,
2013-01-12 18:30:00,38.7,33.1,29.83,SW,217,7.0,15.0,80,0.00,,,0.01,0.0,meteohub,2013-01-12 23:30:00,
2013-01-12 18:35:00,38.7,33.1,29.82,WNW,289,3.0,15.0,80,0.00,,,0.01,0.0,meteohub,2013-01-12 23:35:00,
2013-01-12 18:40:00,38.5,32.9,29.82,WNW,294,1.0,15.0,80,0.00,,,0.01,0.0,meteohub,2013-01-12 23:40:00,
2013-01-12 18:45:00,38.5,32.9,29.83,West,259,4.0,15.0,80,0.00,,,0.01,0.0,meteohub,2013-01-12 23:45:00,
2013-01-12 18:50:00,38.5,32.5,29.83,West,265,2.0,15.0,79,0.00,,,0.01,0.0,meteohub,2013-01-12 23:50:00,
2013-01-12 18:55:00,38.5,32.9,29.83,WSW,238,3.0,12.0,80,0.00,,,0.01,0.0,meteohub,2013-01-12 23:55:00,
2013-01-12 19:00:00,38.5,32.9,29.84,West,266,4.0,12.0,80,0.00,,,0.01,0.0,meteohub,2013-01-13 00:00:00,
2013-01-12 19:05:00,38.3,32.7,29.85,SW,230,3.0,10.0,80,0.00,,,0.00,0.0,meteohub,2013-01-13 00:05:00,
2013-01-12 19:10:00,38.1,32.5,29.85,SSW,208,4.0,10.0,80,0.00,,,0.00,0.0,meteohub,2013-01-13 00:10:00,
2013-01-12 19:15:00,38.1,32.5,29.85,SW,234,4.0,10.0,80,0.00,,,0.00,0.0,meteohub,2013-01-13 00:15:00,
2013-01-12 19:20:00,38.1,32.7,29.85,West,269,6.0,10.0,81,0.00,,,0.00,0.0,meteohub,2013-01-13 00:20:00,
2013-01-12 19:25:00,38.1,32.7,29.86,West,261,1.0,10.0,81,0.00,,,0.00,0.0,meteohub,2013-01-13 00:25:00,
2013-01-12 19:30:00,38.1,32.7,29.86,WSW,252,4.0,10.0,81,0.00,,,0.00,0.0,meteohub,2013-01-13 00:30:00,
2013-01-12 19:35:00,37.9,32.7,29.86,West,268,2.0,12.0,81,0.00,,,0.00,0.0,meteohub,2013-01-13 00:35:00,
2013-01-12 19:40:00,38.1,32.7,29.85,SSW,213,7.0,12.0,81,0.00,,,0.00,0.0,meteohub,2013-01-13 00:40:00,
2013-01-12 19:45:00,37.9,32.9,29.85,WSW,246,3.0,7.0,82,0.00,,,0.00,0.0,meteohub,2013-01-13 00:45:00,
2013-01-12 19:50:00,38.1,33.1,29.86,WSW,246,3.0,9.0,82,0.00,,,0.00,0.0,meteohub,2013-01-13 00:50:00,
2013-01-12 19:55:00,37.9,32.9,29.86,WNW,292,1.0,10.0,82,0.00,,,0.00,0.0,meteohub,2013-01-13 00:55:00,
2013-01-12 20:00:00,37.8,32.7,29.85,WNW,294,1.0,10.0,82,0.00,,,0.00,0.0,meteohub,2013-01-13 01:00:00,
2013-01-12 20:05:00,37.8,33.1,29.85,WNW,299,2.0,9.0,83,0.00,,,0.00,0.0,meteohub,2013-01-13 01:05:00,
2013-01-12 20:10:00,37.4,32.7,29.85,NW,307,3.0,8.0,83,0.00,,,0.00,0.0,meteohub,2013-01-13 01:10:00,
2013-01-12 20:15:00,37.2,32.9,29.84,WNW,282,3.0,5.0,84,0.00,,,0.00,0.0,meteohub,2013-01-13 01:15:00,
2013-01-12 20:20:00,37.2,32.9,29.84,WNW,291,2.0,5.0,84,0.00,,,0.00,0.0,meteohub,2013-01-13 01:20:00,
2013-01-12 20:25:00,37.0,32.7,29.83,WNW,301,3.0,8.0,84,0.00,,,0.00,0.0,meteohub,2013-01-13 01:25:00,
2013-01-12 20:30:00,37.0,32.7,29.83,WNW,287,3.0,8.0,84,0.00,,,0.00,0.0,meteohub,2013-01-13 01:30:00,
2013-01-12 20:36:00,37.0,32.7,29.84,NW,308,3.0,8.0,84,0.00,,,0.00,0.0,meteohub,2013-01-13 01:36:00,
2013-01-12 20:41:00,37.0,32.4,29.83,WNW,295,2.0,7.0,83,0.00,,,0.00,0.0,meteohub,2013-01-13 01:41:00,
2013-01-12 20:46:00,37.0,32.4,29.83,WNW,294,2.0,4.0,83,0.00,,,0.00,0.0,meteohub,2013-01-13 01:46:00,
2013-01-12 20:51:00,36.9,31.6,29.83,WNW,294,2.0,7.0,81,0.00,,,0.00,0.0,meteohub,2013-01-13 01:51:00,
2013-01-12 20:56:00,36.9,31.6,29.83,WNW,284,1.0,7.0,81,0.00,,,0.00,0.0,meteohub,2013-01-13 01:56:00,
2013-01-12 21:01:00,36.9,31.3,29.85,SW,232,2.0,7.0,80,0.00,,,0.00,0.0,meteohub,2013-01-13 02:01:00,
2013-01-12 21:06:00,36.9,31.3,29.86,SSW,208,1.0,7.0,80,0.00,,,0.00,0.0,meteohub,2013-01-13 02:06:00,
2013-01-12 21:11:00,36.7,31.1,29.86,WSW,257,6.0,6.0,80,0.00,,,0.00,0.0,meteohub,2013-01-13 02:11:00,
2013-01-12 21:16:00,36.7,31.1,29.86,SW,229,5.0,6.0,80,0.00,,,0.00,0.0,meteohub,2013-01-13 02:16:00,
2013-01-12 21:21:00,36.7,31.1,29.86,WSW,248,4.0,10.0,80,0.00,,,0.00,0.0,meteohub,2013-01-13 02:21:00,
2013-01-12 21:26:00,36.7,31.1,29.85,WSW,258,2.0,10.0,80,0.00,,,0.00,0.0,meteohub,2013-01-13 02:26:00,
2013-01-12 21:31:00,36.7,31.1,29.84,WSW,239,3.0,10.0,80,0.00,,,0.00,0.0,meteohub,2013-01-13 02:31:00,
2013-01-12 21:36:00,36.5,31.3,29.84,WNW,284,2.0,7.0,81,0.00,,,0.00,0.0,meteohub,2013-01-13 02:36:00,
2013-01-12 21:41:00,36.5,31.3,29.84,West,273,1.0,6.0,81,0.00,,,0.00,0.0,meteohub,2013-01-13 02:41:00,
2013-01-12 21:46:00,36.5,31.3,29.85,WSW,257,0.0,6.0,81,0.00,,,0.00,0.0,meteohub,2013-01-13 02:46:00,
2013-01-12 21:51:00,36.5,31.3,29.85,West,263,1.0,6.0,81,0.00,,,0.00,0.0,meteohub,2013-01-13 02:51:00,
2013-01-12 21:56:00,36.3,31.1,29.86,WNW,301,0.0,2.0,81,0.00,,,0.00,0.0,meteohub,2013-01-13 02:56:00,
2013-01-12 22:01:00,36.5,31.3,29.86,West,261,2.0,6.0,81,0.00,,,0.00,0.0,meteohub,2013-01-13 03:01:00,
2013-01-12 22:06:00,36.7,31.5,29.86,WSW,246,5.0,6.0,81,0.00,,,0.00,0.0,meteohub,2013-01-13 03:06:00,
2013-01-12 22:11:00,36.7,31.1,29.86,SSW,211,1.0,7.0,80,0.00,,,0.00,0.0,meteohub,2013-01-13 03:11:00,
2013-01-12 22:16:00,36.7,31.1,29.86,South,191,1.0,7.0,80,0.00,,,0.00,0.0,meteohub,2013-01-13 03:16:00,
2013-01-12 22:21:00,36.7,31.1,29.86,SSW,207,2.0,7.0,80,0.00,,,0.00,0.0,meteohub,2013-01-13 03:21:00,
2013-01-12 22:26:00,36.7,31.5,29.86,SW,217,1.0,5.0,81,0.00,,,0.00,0.0,meteohub,2013-01-13 03:26:00,
2013-01-12 22:31:00,36.5,31.3,29.86,SW,234,1.0,5.0,81,0.00,,,0.00,0.0,meteohub,2013-01-13 03:31:00,
2013-01-12 22:36:00,36.3,31.1,29.87,SW,233,2.0,4.0,81,0.00,,,0.00,0.0,meteohub,2013-01-13 03:36:00,
2013-01-12 22:41:00,36.3,31.1,29.87,WSW,248,1.0,5.0,81,0.00,,,0.00,0.0,meteohub,2013-01-13 03:41:00,
2013-01-12 22:46:00,36.3,31.3,29.88,WSW,254,1.0,5.0,82,0.00,,,0.00,0.0,meteohub,2013-01-13 03:46:00,
2013-01-12 22:51:00,36.3,31.3,29.89,WSW,245,1.0,5.0,82,0.00,,,0.00,0.0,meteohub,2013-01-13 03:51:00,
2013-01-12 22:56:00,36.1,31.5,29.90,WSW,237,4.0,5.0,83,0.00,,,0.00,0.0,meteohub,2013-01-13 03:56:00,
2013-01-12 23:01:00,36.1,31.5,29.91,West,266,2.0,6.0,83,0.00,,,0.00,0.0,meteohub,2013-01-13 04:01:00,
2013-01-12 23:06:00,36.1,31.5,29.91,SSW,211,5.0,8.0,83,0.00,,,0.00,0.0,meteohub,2013-01-13 04:06:00,
2013-01-12 23:12:00,36.0,31.3,29.91,WSW,255,3.0,8.0,83,0.00,,,0.00,0.0,meteohub,2013-01-13 04:12:00,
2013-01-12 23:17:00,36.0,31.6,29.91,SW,231,3.0,8.0,84,0.00,,,0.00,0.0,meteohub,2013-01-13 04:17:00,
2013-01-12 23:22:00,36.0,31.3,29.90,SW,236,3.0,9.0,83,0.00,,,0.00,0.0,meteohub,2013-01-13 04:22:00,
2013-01-12 23:27:00,36.0,31.3,29.90,WSW,243,1.0,9.0,83,0.00,,,0.00,0.0,meteohub,2013-01-13 04:27:00,
2013-01-12 23:32:00,36.1,31.1,29.89,WSW,257,5.0,9.0,82,0.00,,,0.00,0.0,meteohub,2013-01-13 04:32:00,
2013-01-12 23:37:00,36.1,30.9,29.90,WSW,241,7.0,9.0,81,0.00,,,0.00,0.0,meteohub,2013-01-13 04:37:00,
2013-01-12 23:42:00,36.1,30.9,29.89,WSW,244,2.0,9.0,81,0.00,,,0.00,0.0,meteohub,2013-01-13 04:42:00,
2013-01-12 23:47:00,36.1,30.6,29.89,WSW,250,2.0,9.0,80,0.00,,,0.00,0.0,meteohub,2013-01-13 04:47:00,
2013-01-12 23:52:00,36.1,30.6,29.88,West,270,0.0,9.0,80,0.00,,,0.00,0.0,meteohub,2013-01-13 04:52:00,
2013-01-12 23:57:00,36.1,30.6,29.88,West,259,0.0,9.0,80,0.00,,,0.00,0.0,meteohub,2013-01-13 04:57:00,